Regional Weather Roundup
Issued by NWS

Home | Current Version | Previous Version | Text Only | Print | Product List | Glossary Off
Versions: 1 2 3 4 5 6 7 8 9 10 11 12 13 14 15 16 17 18 19 20 21 22 23 24 25 26 27 28 29 30 31 32 33 34 35 36 37 38 39 40 41 42 43 44 45 46 47 48 49 50

000
ASUS45 KBOU 040507
RWRCO

WEATHER ROUNDUP FOR COLORADO
NATIONAL WEATHER SERVICE DENVER/BOULDER CO
1000 PM MST TUE MAR 03 2015

NOTE: "FAIR" INDICATES FEW OR NO CLOUDS BELOW 12000 FEET WITH NO
SIGNIFICANT WEATHER AND/OR OBSTRUCTIONS TO VISIBILITY.

COZ001>005-013-030-031-040600-
...NORTHWEST COLORADO...

CITY           SKY/WX    TMP DP  RH WIND       PRES   REMARKS
CRAIG          CLOUDY    19  15  84 SW5       29.87R WCI  12
HAYDEN         CLOUDY    19  12  73 W6        29.84R WCI  11
MEEKER         CLOUDY    25  22  88 CALM      29.84R
MOUNT WERNER   NOT AVBL
STEAMBOAT SPGS CLOUDY    21  16  81 W5        29.82R WCI  14
WALDEN         CLOUDY    12   7  79 SE3       29.75R
$$

COZ006>008-011-040600-
...WEST CENTRAL VALLEYS...

CITY           SKY/WX    TMP DP  RH WIND       PRES   REMARKS
GRAND JUNCTION FOG       29  29 100 N7        29.86R VSB 1/4 WCI  22
MONTROSE       SNOW      30  29  96 W6        29.87R VSB 1/2 WCI  24
EAGLE          LGT SNOW  27  25  93 CALM      29.82R FOG
RIFLE          LGT SNOW  30  27  88 W12       29.84R VSB 3/4 WCI  20
DELTA          CLOUDY    34  30  85 SW13      29.83R WCI  25
NUCLA          LGT SNOW  30  28  93 N8        29.90R VSB 3/4 WCI  23
$$

COZ017>023-064>068-040600-
...SOUTHWEST COLORADO...

CITY           SKY/WX    TMP DP  RH WIND       PRES   REMARKS
DURANGO        PTCLDY    28  25  88 CALM      29.86R
CORTEZ         CLEAR     29  26  89 VRB5      29.87R WCI  24
PAGOSA SPRINGS PTCLDY    20  20  98 CALM      29.85S
TELLURIDE      CLOUDY    22  16  78 CALM      29.83R
WOLF CREEK PAS CLOUDY    10   9  92 SW15G25   29.80R WCI  -6
$$

COZ009-010-012-014-032>034-037-058>063-040600-
...CENTRAL COLORADO...

CITY           SKY/WX    TMP DP  RH WIND       PRES   REMARKS
ASPEN          LGT SNOW  24  22  91 N9        29.75R FOG     WCI  14
BUENA VISTA    PTCLDY    27   5  39 SW14      29.73R WCI  16
COPPER MTN     NOT AVBL
BERTHOUD PASS  SNOW       3  -4  72 MISG      29.67R VSB<1/4
COTTONWOOD PAS PTCLDY    23   5  46 W9G25     29.71S WCI  13
GUNNISON       PTCLDY    25  12  58 SW5       29.80R WCI  19
KREMMLING      CLOUDY    23  10  58 N5        29.80R WCI  17
LEADVILLE      CLOUDY    14  10  84 NE6       29.69R WCI   5
SALIDA         PTCLDY    23  20  86 E9G18     29.84R WCI  13
SUNLIGHT       CLOUDY    16  12  86 W7          N/A  WCI   6
WILKERSON PASS CLOUDY    12   9  85 SW7       29.72R WCI   2
$$

COZ069>075-040600-
...SAN LUIS VALLEY/SANGRE DE CRISTO MOUNTAINS...

CITY           SKY/WX    TMP DP  RH WIND       PRES   REMARKS
ALAMOSA        CLEAR     26  20  77 SW13      29.81R WCI  15
LA VETA PASS   CLOUDY    21  18  86 SW8       29.78R WCI  12
SAGUACHE       CLEAR     27  21  80 NW3       29.78S
$$

COZ035-036-038>040-040600-
...NORTHERN COLORADO FRONT RANGE...

CITY           SKY/WX    TMP DP  RH WIND       PRES   REMARKS
DENVER INTL AP LGT SNOW  19  16  88 NE7       29.90S VSB 3/4 WCI  10
DMNS CITY PARK   N/A     19  17  93 NE6       29.92R WCI  11
AURORA         LGT SNOW  17  16  97 N6        29.90R FOG     WCI   9
FRONT RANGE AP NOT AVBL
ERIE MUNI ARPT LGT SNOW  19  17  93 N8        29.94R WCI   8
BOULDER MUN AP LGT SNOW  18  18 100 N8        29.93R WCI   7
CENTENNIAL     CLOUDY    18  15  88 N6        29.88R WCI  10
BROOMFIELD     LGT SNOW  18  16  93 N5        29.90  WCI  11
FORT COLLINS   MOCLDY    16  10  79 NE9       29.97R WCI   4
LONGMONT       FLURRIES  19  15  83 NE8       29.97R WCI   9
$$

COZ041-046-047-076>085-087-088-040600-
...PIKES PEAK/PALMER DIVIDE AND SOUTHERN FOOTHILLS...

CITY           SKY/WX    TMP DP  RH WIND       PRES   REMARKS
COLO. SPRINGS  LGT SNOW  21  20  96 SE10      29.85R WCI  10
A. F. ACADEMY  LGT SNOW  19  18  93 SE7       29.83R FOG     WCI  10
ELLICOTT       NOT AVBL
FALCON         FOG       19  18  96 SE6       29.84R VSB 1/4 WCI  11
FORT CARSON    LGT SNOW  22  21  96 SE10      29.83R FOG     WCI  11
LIMON            N/A     19  16  88 E6        29.90  WCI  11
MONUMENT HILL  CLOUDY    19  18  93 S6        29.81R WCI  11
TRINIDAD       FOG       28  26  92 E9        29.84R VSB 1/4 WCI  19
$$

COZ042>045-048>051-090-091-040600-
...NORTHEAST COLORADO...

CITY           SKY/WX    TMP DP  RH WIND       PRES   REMARKS
GREELEY ARPT   CLOUDY    16   7  67 NE9       29.97R WCI   4
AKRON          LGT SNOW  17  14  88 NE12      29.97R FOG     WCI   4
BURLINGTON     CLOUDY    23  14  68 E14       29.96R WCI  11
WRAY           LGT SNOW  20  17  86 NE12      30.04R WCI   8
STERLING       LGT SNOW  18  16  93 NE8       30.01R WCI   7
HOLYOKE        NOT AVBL
FORT MORGAN    LGT SNOW  17  13  88 NE15      29.98R WCI   2
$$

COZ086-089-092>099-040600-
...SOUTHEAST COLORADO...

CITY           SKY/WX    TMP DP  RH WIND       PRES   REMARKS
PUEBLO         CLOUDY    26  25  96 E13       29.89R FOG     WCI  15
LA JUNTA       CLOUDY    28  21  75 E13       29.92R WCI  17
LAMAR          CLOUDY    28  19  69 E12       29.94R WCI  18
SPRINGFIELD      N/A     24  23  96 NE12      29.89F WCI  13
$$


USA.gov is the U.S. government's official web portal to all federal, state and local government web resources and services.